默认 日期 大小 文件数 浏览量 最新下载 xml
“宇宙”磁力链接相关资源由用户搜索指令自动获取,结果来源于网络,本站不存储任何资料,亦不承担任何责任,请于24小时内删除,搜索到6277个磁力,显示前4000条数据,用时5ms。
    {"cover1.jpg": 503113, "cover2.jpg": 701857, "cover3.jpg": 907439, "帕丁顿熊2.2017.国英双语X265.torrent": 15687, "电影烧包-一个致力于华语与CULT的影视论坛.url": 112, "BT@烧包-一个致力于分享精品影视的种子网站.url": 111, "[漫威短片合集].Marvel.One.Shot.2011-2014.BD.1080P.x265.10bit.DD5.1.English-FRDS": {" ...
创建时间: 2018-12-15 11:16:22 大小:98.49 GB 文件数量:36 热度:369 最近下载:2025-10-08 06:24:02
    ... 梦:大雄的英雄记.2015.jpg ... 梦:大雄的英雄记.2015.txt ... 梦:大雄的英雄记].Doraemon.Nobita ... 梦:大雄的英雄记].Doraemon.Nobita ...
创建时间: 2018-12-15 11:28:19 大小:3.61 GB 文件数量:7 热度:79 最近下载:2025-10-15 19:02:28
    {"海賊サラ_DVD- ... 禁アニメ)_海賊サラ_vol ... 禁アニメ)_海賊サラ_vol ... 禁アニメ)_海賊サラ_vol ... 禁アニメ)_海賊サラ_vol ...
创建时间: 2018-12-16 18:18:31 大小:1.07 GB 文件数量:5 热度:75 最近下载:2025-10-02 17:22:03
    {"AAC+MP3": {"01. MORE!.m4a": 7140228, "01. MORE!.mp3": 8454847, "02. なみだ.m4a": 9683061, "02. なみだ.mp3": 11334582}, "Cover.jpg": 58820}
创建时间: 2018-12-17 08:37:26 大小:34.97 MB 文件数量:5 热度:13 最近下载:2025-08-13 22:40:04
    {"MP3": {"02. 未来への誓い.mp3": 11937930, "01. R.I.P~友よ静かに眠れ~.mp3": 12138566}, "Cover.jpg": 162611}
创建时间: 2018-12-17 09:05:53 大小:23.12 MB 文件数量:3 热度:21 最近下载:2025-08-02 13:48:02
    ... 费资源.url": 120, "海賊サラVol ...
创建时间: 2018-12-17 13:38:36 大小:140.75 MB 文件数量:5 热度:24 最近下载:2025-02-26 21:18:03
    {"More Hentai Torrents.txt": 20, "Space Babe Yukino DX Collector's Edition.mp4": 351313887, "Download Torrents , H-Manga Doujin , Hentai Anime , Hentai Game.url": 202}
创建时间: 2018-12-17 16:00:25 大小:335.04 MB 文件数量:3 热度:147 最近下载:2025-09-17 04:21:11
    ... 家关注.txt": 247, "(企画)(MDTM-227)神 ... 坂仁美.jpg": 184585, "(企画)(MDTM-227)神 ...
创建时间: 2018-12-17 22:27:28 大小:1.12 GB 文件数量:9 热度:33 最近下载:2025-08-04 23:33:09
    {"Cover.jpg": 94753, "ジャケット": {"ZMCZ-11855_001.jpg": 566772, "ZMCZ-11855_002.jpg": 1055876, "ZMCZ-11855_003.jpg": 1652097, "ZMCZ-11855_004.jpg": 479923, "ZMCZ-11855_005.jpg": 555386, "ZMCZ-11855_006.jpg": 719900, "ZMCZ-11855_007.jpg": 299964, "ZMCZ- ...
创建时间: 2018-12-18 00:17:55 大小:126.25 MB 文件数量:13 热度:38 最近下载:2025-09-18 17:25:12
    ... 家关注.txt": 247, "(企画)(EXVR-059)波 ... ラブSEX.jpg": 125377, "(企画)(EXVR-059)波 ...
创建时间: 2018-12-18 12:16:15 大小:1.91 GB 文件数量:9 热度:151 最近下载:2025-10-14 19:46:01
    {"01.jpg": 214978, "02.jpg": 192627, "03.jpg": 785723, "04.jpg": 684279, "05.jpg": 489776, "06.jpg": 668929, "07.jpg": 583235, "08.jpg": 649906, "09.jpg": 754150, "10.jpg": 773902, "11.jpg": 628292, "12.jpg": 778032, "13.jpg": 707986, "14.jpg": 661601, "15 ...
创建时间: 2018-12-18 21:52:23 大小:15.41 MB 文件数量:27 热度:164 最近下载:2025-09-23 12:57:04
    ... 演 A57X.COM.mp4": 20920967, "海賊サラ Vol ... 虐騎士.jpg": 170165, "海賊サラ Vol ... 虐騎士.mp4": 447998999, "海賊サラ Vol ...
创建时间: 2018-12-19 00:15:30 大小:499.47 MB 文件数量:32 热度:29 最近下载:2025-04-28 10:40:02
    ... ェス 四角いでSquarePanic![Main][BDRip][1080p ... ェス 四角いでSquarePanic![Staff][BDRip][1080p ... ェス 四角いでSquarePanic![Extra A][BDRip ... ェス 四角いでSquarePanic![Extra B][BDRip ...
创建时间: 2018-12-19 00:38:23 大小:13.52 GB 文件数量:4 热度:6 最近下载:2025-03-06 17:34:03
    ... 发布器.chm": 11627, "海賊サラ vol ... 壇 - t66y.com.url": 193, "海賊サラ Vol ... の双子.ass": 35123, "海賊サラ Vol ...
创建时间: 2018-12-19 00:40:36 大小:473.03 MB 文件数量:11 热度:36 最近下载:2025-08-05 06:56:01
    ... 家关注.txt": 247, "(企画)(MDTM-044)放 ... 乃みく.avi": 1142942495, "(企画)(MDTM-044)放 ...
创建时间: 2018-12-19 00:55:38 大小:1.06 GB 文件数量:9 热度:76 最近下载:2025-08-15 14:47:02
    {" ": 168, "001.jpg": 87857, "002.jpg": 148337, "003.jpg": 103237, "004.jpg": 112874, "战警成人黄色版之美女色诱篇(美国第一成人台HBO出品).avi": 2108068716}
创建时间: 2018-12-19 01:00:07 大小:1.96 GB 文件数量:8 热度:1115 最近下载:2025-10-18 02:58:02
    ... 集发布}.mht": 122449, "海賊サラ Vol ... 虐騎士.ass": 46932, "海賊サラ Vol ...
创建时间: 2018-12-19 02:40:24 大小:460.15 MB 文件数量:12 热度:22 最近下载:2025-07-28 16:11:02
    {"New52": {"自杀小队": {"自杀小队(加长版).HD.720p.中英双字幕.rmvb": 1586122720, "Suicide.Squad.2016.EXTENDED.1080p.WEB-DL.DD5.1.H264-FGT.mkv": 4984693656}, "超人:钢铁之躯": {"超人:钢铁之躯.BD.720p.rmvb": 1677854287, "Man.of.Steel.2013.超人.钢铁之躯.双语字幕.国英音轨.HR-HDTV.AC3.1024x576.x264-人人影视制 ...
创建时间: 2018-12-19 04:05:22 大小:19.91 GB 文件数量:15 热度:86 最近下载:2025-09-11 22:32:02
    ... , "DC扩展.jpg": 233413, "DC扩展 合集 ...
创建时间: 2018-12-19 04:18:57 大小:56.91 GB 文件数量:31 热度:316 最近下载:2025-10-17 21:57:02
    ... Chap).mkv": 1073884624, "[NAOKI-Raws] のステルヴ ... Chap).mkv": 1078854287, "[NAOKI-Raws] のステルヴ ... ).mkv": 1079515252, "[NAOKI-Raws] のステルヴ ... ).mkv": 1068366124, "[NAOKI-Raws] のステルヴ ... ).mkv": 1084280943, "[NAOKI-Raws] のステルヴ ... ).mkv": 1079984358, "[NAOKI-Raws] のステルヴ ...
创建时间: 2018-12-19 05:38:36 大小:27.54 GB 文件数量:41 热度:23 最近下载:2024-12-11 00:15:01